Regional Weather Roundup
Issued by NWS

Home | Current Version | Previous Version | Graphics & Text | Print | Product List | Glossary Off
Versions: 1 2 3 4 5 6 7 8 9 10 11 12 13 14 15 16 17 18 19 20 21 22 23 24 25 26 27 28 29 30 31 32 33 34 35 36 37 38 39 40 41 42 43 44 45 46 47 48 49 50

000
ASUS43 KMKX 232059
RWRWI

WISCONSIN REGIONAL WEATHER ROUNDUP
NATIONAL WEATHER SERVICE MILWAUKEE/SULLIVAN WI
300 PM CST MON JAN 23 2017

NOTE: "FAIR" INDICATES FEW OR NO CLOUDS BELOW 12,000 FEET WITH NO
SIGNIFICANT WEATHER AND/OR OBSTRUCTIONS TO VISIBILITY.

WIZ001-002-006>008-014>016-023>028-232200-
NORTHWEST WISCONSIN

CITY           SKY/WX    TMP DP  RH WIND       PRES   REMARKS
SUPERIOR ARPT  CLOUDY    37  34  87 W8        29.79R WCI  31
ASHLAND        CLOUDY    38  35  89 SW3       29.77R
HAYWARD        CLOUDY    37  32  82 W3        29.78R
SIREN          CLOUDY    35  35  99 W6        29.80R WCI  30
CUMBERLAND     CLOUDY    32  32 100 W7        29.78S WCI  26
RICE LAKE      CLOUDY    35  33  94 W5        29.81R WCI  31
CHETEK         CLOUDY    35  33  92 W5        29.79S WCI  31
LADYSMITH      CLOUDY    36  36  99 W3        29.78R FOG
EAU CLAIRE     CLOUDY    34  33  96 W8        29.80R FOG     WCI  27
MENOMONIE        N/A    N/A N/A N/A MISG        N/A
NEW RICHMOND   CLOUDY    34  33  97 W6        29.81S FOG     WCI  29
OSCEOLA        CLOUDY    35  35 100 W7        29.84R WCI  29
$$

WIZ003>005-009-010-017-018-232200-
NORTH CENTRAL WISCONSIN

CITY           SKY/WX    TMP DP  RH WIND       PRES   REMARKS
MANITOWISH WTR CLOUDY    33  33 100 NW3       29.73S
ARBOR VITAE    CLOUDY    37  35  94 CALM      29.74R
WOODRUFF       CLOUDY    37  35  94 CALM      29.74R
RHINELANDER    CLOUDY    37  34  89 W5        29.73S WCI  33
EAGLE RIVER    CLOUDY    37  34  90 NW3       29.72S
LAND O LAKES   CLOUDY    37  34  89 CALM      29.74S
PHILLIPS       CLOUDY    35  35 100 CALM      29.74S
TOMAHAWK       CLOUDY    36  33  88 NW3       29.74S
MEDFORD        CLOUDY    33  33  99 W3        29.74S FOG
MERRILL        CLOUDY    37  35  93 W5          N/A  WCI  33
$$

WIZ029-030-035-036-043>047-232200-
CENTRAL WISCONSIN

CITY           SKY/WX    TMP DP  RH WIND       PRES   REMARKS
WAUSAU         CLOUDY    35  33  92 W5        29.74S WCI  31
MOSINEE        NOT AVBL
MARSHFIELD     CLOUDY    34  33  96 NW5       29.75S FOG     WCI  30
STEVENS POINT  CLOUDY    35  33  95 CALM      29.76R
WAUPACA        CLOUDY    40  35  81 CALM      29.76S
WAUTOMA        CLOUDY    37  34  89 W7        29.77R WCI  32
WISC RAPIDS    CLOUDY    36  35  96 N3        29.78R
CAMP DOUGLAS   NOT AVBL
$$

WIZ011>013-019>022-031-037>040-048>050-232200-
NORTHEAST WISCONSIN

CITY           SKY/WX    TMP DP  RH WIND       PRES   REMARKS
ANTIGO         CLOUDY    35  33  93 CALM      29.73S
SHAWANO        CLOUDY    40  35  80 CALM      29.74F
OCONTO         CLOUDY    38  35  89 CALM      29.74F
STURGEON BAY   FOG       36  36 100 NW5       29.75S VSB 1/4 WCI  32
GREEN BAY      CLOUDY    40  36  86 NW3       29.74F
MANITOWOC      NOT AVBL
APPLETON       PTSUNNY   37  37 100 VRB5      29.73S WCI  34
CLINTONVILLE   CLOUDY    37  34  87 W5        29.74S WCI  34
OSHKOSH        CLOUDY    38  34  85 W5        29.75R WCI  34
$$

WIZ032>034-041-042-053>061-232200-
SOUTHWEST WISCONSIN

CITY           SKY/WX    TMP DP  RH WIND       PRES   REMARKS
LA CROSSE      CLOUDY    39  33  79 NW3       29.81S
SPARTA         CLOUDY    35  34  97 W6        29.81R FOG     WCI  29
VIROQUA        CLOUDY    34  34 100 W6        29.79R WCI  29
BOSCOBEL       CLOUDY    40  31  70 W6        29.81S
PRAIRIE DU CHI CLOUDY    38  32  81 NW5       29.81S WCI  34
PLATTEVILLE    CLOUDY    38  37  97 W8        29.79S WCI  32
$$

WIZ056-057-062-063-064-067-068-232200-
SOUTH CENTRAL WISCONSIN

CITY           SKY/WX    TMP DP  RH WIND       PRES   REMARKS
REEDSBURG      CLOUDY    37  36  94 W6        29.78R WCI  33
BARABOO/DELLS  CLOUDY    36  35  95 W6        29.77R FOG     WCI  31
LONE ROCK      NOT AVBL
MINERAL POINT  CLOUDY    39  36  87 W9        29.77S WCI  33
MADISON        CLOUDY    38  35  89 NW5       29.78R WCI  34
MIDDLETON      CLOUDY    39  39 100 NW5       29.77S
WATERTOWN      CLOUDY    37  37  97 N5        29.75S WCI  34
MONROE         CLOUDY    37  36  93 W7        29.77R WCI  32
JANESVILLE     CLOUDY    43  37  81 NW6       29.76R
$$

WIZ051-052-058>065-066-070>072-232200-
SOUTHEAST WISCONSIN

CITY           SKY/WX    TMP DP  RH WIND       PRES   REMARKS
MILWAUKEE      CLOUDY    43  36  76 NW6       29.74R
WAUKESHA       CLOUDY    37  36  93 W7        29.76R WCI  32
MILWAUKEE/TIMM CLOUDY    41  36  81 NW6       29.76R
RACINE         CLOUDY    41  36  82 NE3       29.76R
KENOSHA        CLOUDY    42  36  79 NW8       29.74R
FOND DU LAC    CLOUDY    39  34  82 W6        29.75S WCI  35
SHEBOYGAN      CLOUDY    40  35  83 NW10      29.74S WCI  33
WEST BEND      CLOUDY    37  36  93 NW6       29.75R WCI  33
JUNEAU         CLOUDY    36  35  95 CALM      29.76R
$$

LSZ147-162-232200-
LAKE SUPERIOR

STATION/POSITION TIME  TEMP    WIND        PRES    WAVE
                       AIR SEA DIR/SP/G            HT/PER
                 (UTC) (F)     (DEG/KT/KT) (MB)    (FT/S)
DEVILS ISLAND    2000   35     240/  4/  5 1008.4F
PORT WING        2030   37     250/  4/  6 1008.5R
SAXON HARBOR     2040   36        CALM     1008.1R
$$

LMZ867-665-643>646-232200-
LAKE MICHIGAN

STATION/POSITION TIME  TEMP    WIND        PRES    WAVE
                       AIR SEA DIR/SP/G            HT/PER
                 (UTC) (F)     (DEG/KT/KT) (MB)    (FT/S)
NORTHPORT PIER   2040   34     310/  5/  7 1007.5R
SISTER BAY       1950   34     350/  7/  8   N/A
KEWAUNEE LAKESHO 2030   38     310/  4/  9 1006.8S
SHEBOYGAN LAKESH 2000   40     320/  8/  9 1007.2F
PORT WASHINGTON  2040   42     320/  6/  8 1008.5R
KENOSHA   LAKESH 2000   36      40/  6/  7 1007.5
$$

TC  - TEMPERATURE IN CELSIUS
VSB - VISIBILITY IN STATUTE MILES
WCI - WIND CHILL INDEX
HX  - HEAT INDEX




USA.gov is the U.S. government's official web portal to all federal, state and local government web resources and services.